| time (UTC) | temp F | wind direction | speed knots | gust knots | rain 1hr in | rain 24hr in | rain mn in | humidity % | barometer mb |
| 20260509160058 | 50 | 0 | 0.0 | 0.0 | 0.05 | 0.17 | 0.17 | 94 | 1003.0 |
| 20260509154610 | 50 | 0 | 0.0 | 0.0 | 0.03 | 0.15 | 0.15 | 94 | 1003.2 |
| 20260509153057 | 50 | 0 | 0.0 | 0.0 | 0.02 | 0.14 | 0.14 | 94 | 1003.1 |
| 20260509151603 | 49 | 0 | 0.0 | 0.0 | 0.02 | 0.13 | 0.13 | 94 | 1002.8 |
| 20260509150112 | 49 | 0 | 0.0 | 0.0 | 0.01 | 0.12 | 0.12 | 94 | 1002.9 |
| 20260509144708 | 49 | 0 | 0.0 | 0.0 | 0.01 | 0.12 | 0.12 | 94 | 1003.0 |
| 20260509143057 | 49 | 0 | 0.0 | 0.0 | 0.02 | 0.12 | 0.12 | 94 | 1003.0 |
| 20260509141550 | 48 | 0 | 0.0 | 0.0 | 0.01 | 0.11 | 0.11 | 94 | 1003.0 |
| 20260509140059 | 48 | 0 | 0.0 | 0.0 | 0.02 | 0.11 | 0.11 | 94 | 1003.1 |
| 20260509134557 | 48 | 0 | 0.0 | 0.0 | 0.01 | 0.10 | 0.10 | 93 | 1003.2 |
| 20260509133054 | 48 | 0 | 0.0 | 0.0 | 0.01 | 0.10 | 0.10 | 93 | 1003.3 |
| 20260509131553 | 47 | 0 | 0.0 | 0.0 | 0.01 | 0.10 | 0.10 | 93 | 1003.5 |
| 20260509130105 | 47 | 0 | 0.0 | 0.0 | 0.00 | 0.09 | 0.09 | 93 | 1003.2 |
| 20260509124611 | 46 | 0 | 0.0 | 0.0 | 0.01 | 0.09 | 0.09 | 92 | 1002.9 |
| 20260509123059 | 46 | 0 | 0.0 | 0.0 | 0.01 | 0.09 | 0.09 | 92 | 1003.0 |
| 20260509121552 | 45 | 67 | 0.0 | 2.6 | 0.01 | 0.09 | 0.09 | 92 | 1003.2 |
| 20260509120104 | 45 | 0 | 0.0 | 0.0 | 0.02 | 0.09 | 0.09 | 91 | 1003.5 |
| 20260509114554 | 44 | 0 | 0.0 | 0.0 | 0.01 | 0.08 | 0.08 | 91 | 1003.6 |
| 20260509113055 | 44 | 0 | 0.0 | 0.0 | 0.01 | 0.08 | 0.08 | 90 | 1003.6 |
| 20260509111552 | 44 | 0 | 0.0 | 0.0 | 0.01 | 0.08 | 0.08 | 90 | 1003.6 |
| 20260509110053 | 43 | 0 | 0.0 | 0.0 | 0.00 | 0.07 | 0.07 | 90 | 1003.6 |
| 20260509104548 | 43 | 0 | 0.0 | 0.9 | 0.00 | 0.07 | 0.07 | 89 | 1003.4 |
| 20260509103049 | 43 | 59 | 0.0 | 5.2 | 0.00 | 0.07 | 0.07 | 89 | 1003.3 |
| 20260509101554 | 43 | 79 | 2.6 | 7.8 | 0.01 | 0.07 | 0.07 | 89 | 1003.1 |
| 20260509100056 | 43 | 45 | 0.9 | 2.6 | 0.01 | 0.07 | 0.07 | 90 | 1003.3 |
| 20260509094553 | 43 | 0 | 0.0 | 0.0 | 0.02 | 0.07 | 0.07 | 89 | 1003.4 |
| 20260509093052 | 44 | 0 | 0.0 | 0.0 | 0.02 | 0.07 | 0.07 | 88 | 1003.5 |
| 20260509091552 | 44 | 0 | 0.0 | 0.0 | 0.01 | 0.06 | 0.06 | 88 | 1003.5 |
| 20260509090055 | 44 | 0 | 0.0 | 2.6 | 0.02 | 0.06 | 0.06 | 87 | 1003.5 |
| 20260509084556 | 44 | 290 | 2.6 | 5.2 | 0.01 | 0.05 | 0.05 | 85 | 1003.7 |
| 20260509083055 | 44 | 0 | 0.9 | 7.8 | 0.02 | 0.05 | 0.05 | 85 | 1003.9 |
| 20260509081552 | 44 | 275 | 5.2 | 10.4 | 0.03 | 0.05 | 0.05 | 84 | 1003.4 |
| 20260509080058 | 44 | 308 | 5.2 | 8.7 | 0.03 | 0.04 | 0.04 | 84 | 1003.1 |
| 20260509074551 | 45 | 317 | 2.6 | 5.2 | 0.04 | 0.04 | 0.04 | 82 | 1003.3 |
| 20260509073056 | 46 | 25 | 0.9 | 3.5 | 0.03 | 0.03 | 0.03 | 81 | 1003.3 |
| 20260509071556 | 47 | 0 | 0.0 | 0.0 | 0.02 | 0.02 | 0.02 | 78 | 1003.2 |
| 20260509070050 | 48 | 0 | 0.0 | 0.9 | 0.01 | 0.01 | 0.01 | 73 | 1003.4 |
| 20260509064548 | 48 | 0 | 0.0 | 2.6 | 0.00 | 0.00 | 0.00 | 66 | 1003.3 |
| 20260509063048 | 48 | 351 | 0.9 | 3.5 | 0.00 | 0.00 | 0.00 | 64 | 1003.1 |
| 20260509061552 | 48 | 286 | 0.0 | 0.0 | 0.00 | 0.00 | 0.00 | 70 | 1003.4 |
| 20260509060105 | 48 | 0 | 0.0 | 0.0 | 0.00 | 0.00 | 0.00 | 69 | 1003.2 |
| 20260509054603 | 49 | 0 | 0.0 | 0.0 | 0.00 | 0.00 | 0.00 | 68 | 1003.5 |
| 20260509053049 | 49 | 0 | 0.0 | 0.0 | 0.00 | 0.00 | 0.00 | 64 | 1003.5 |
| 20260509051551 | 49 | 0 | 0.0 | 0.0 | 0.00 | 0.00 | 0.00 | 64 | 1003.6 |
| 20260509050059 | 49 | 0 | 0.0 | 0.0 | 0.00 | 0.00 | 0.00 | 67 | 1003.6 |
| 20260509044552 | 49 | 0 | 0.0 | 0.9 | 0.00 | 0.00 | 0.00 | 66 | 1003.7 |
| 20260509043049 | 49 | 0 | 0.0 | 0.9 | 0.00 | 0.00 | 0.00 | 68 | 1003.8 |
| 20260509041549 | 50 | 0 | 0.0 | 0.9 | 0.00 | 0.00 | 0.00 | 66 | 1003.7 |
| 20260509040055 | 50 | 0 | 0.0 | 0.0 | 0.00 | 0.00 | 0.00 | 65 | 1003.7 |
| 20260509034600 | 50 | 0 | 0.0 | 0.9 | 0.00 | 0.00 | 0.00 | 64 | 1003.6 |
| 20260509033051 | 50 | 0 | 0.0 | 0.0 | 0.00 | 0.00 | 0.00 | 63 | 1003.6 |
| 20260509031600 | 50 | 0 | 0.0 | 0.0 | 0.00 | 0.00 | 0.00 | 66 | 1003.3 |
| 20260509030053 | 50 | 0 | 0.0 | 1.7 | 0.00 | 0.00 | 0.00 | 65 | 1003.3 |
| 20260509024554 | 50 | 0 | 0.0 | 1.7 | 0.00 | 0.00 | 0.00 | 63 | 1003.4 |
| 20260509023058 | 50 | 0 | 0.0 | 0.0 | 0.00 | 0.00 | 0.00 | 62 | 1003.3 |
| 20260509021549 | 50 | 0 | 0.0 | 0.0 | 0.00 | 0.00 | 0.00 | 59 | 1003.4 |
| 20260509020056 | 49 | 0 | 0.0 | 0.0 | 0.00 | 0.00 | 0.00 | 60 | 1003.5 |
| 20260509014550 | 50 | 0 | 0.0 | 0.0 | 0.00 | 0.00 | 0.00 | 58 | 1003.3 |
| 20260509013113 | 50 | 0 | 0.0 | 0.0 | 0.00 | 0.00 | 0.00 | 56 | 1003.1 |
| 20260509011555 | 51 | 0 | 0.0 | 0.0 | 0.00 | 0.00 | 0.00 | 54 | 1002.7 |
| 20260509010053 | 51 | 0 | 0.0 | 2.6 | 0.00 | 0.00 | 0.00 | 54 | 1002.8 |
| 20260509004553 | 51 | 0 | 0.0 | 1.7 | 0.00 | 0.00 | 0.00 | 55 | 1002.4 |
| 20260509003103 | 51 | 285 | 0.0 | 2.6 | 0.00 | 0.00 | 0.00 | 53 | 1002.1 |
| 20260509001557 | 52 | 279 | 0.0 | 1.7 | 0.00 | 0.00 | 0.00 | 53 | 1001.9 |
| 20260509000057 | 53 | 257 | 0.0 | 1.7 | 0.00 | 0.00 | 0.00 | 50 | 1002.0 |
| 20260508234556 | 53 | 0 | 0.0 | 1.7 | 0.00 | 0.00 | 0.00 | 53 | 1002.0 |
| 20260508233056 | 54 | 0 | 0.0 | 3.5 | 0.00 | 0.00 | 0.00 | 52 | 1001.9 |
| 20260508231559 | 55 | 0 | 0.0 | 1.7 | 0.00 | 0.00 | 0.00 | 51 | 1001.7 |
| 20260508230100 | 56 | 0 | 0.0 | 1.7 | 0.00 | 0.00 | 0.00 | 48 | 1001.7 |
| 20260508224604 | 56 | 0 | 0.0 | 1.7 | 0.00 | 0.00 | 0.00 | 47 | 1001.4 |
| 20260508223049 | 57 | 0 | 0.0 | 1.7 | 0.00 | 0.00 | 0.00 | 41 | 1001.4 |
| 20260508221557 | 58 | 33 | 0.0 | 3.5 | 0.00 | 0.00 | 0.00 | 44 | 1001.5 |
| 20260508220053 | 57 | 0 | 0.0 | 3.5 | 0.00 | 0.00 | 0.00 | 41 | 1001.4 |
| 20260508214553 | 58 | 146 | 0.9 | 2.6 | 0.00 | 0.00 | 0.00 | 42 | 1001.3 |
| 20260508213114 | 57 | 0 | 2.6 | 7.8 | 0.00 | 0.00 | 0.00 | 39 | 1001.2 |
| 20260508211552 | 57 | 95 | 1.7 | 5.2 | 0.00 | 0.00 | 0.00 | 40 | 1001.2 |
| 20260508210056 | 58 | 127 | 3.5 | 7.8 | 0.00 | 0.00 | 0.00 | 40 | 1001.0 |
| 20260508204557 | 58 | 0 | 0.0 | 6.1 | 0.00 | 0.00 | 0.00 | 41 | 1001.4 |
| 20260508203109 | 58 | 0 | 1.7 | 8.7 | 0.00 | 0.00 | 0.00 | 39 | 1001.2 |
| 20260508201554 | 59 | 0 | 0.9 | 6.1 | 0.00 | 0.00 | 0.00 | 42 | 1001.2 |
| 20260508200054 | 59 | 0 | 1.7 | 7.8 | 0.00 | 0.00 | 0.00 | 41 | 1001.2 |
| 20260508194552 | 58 | 135 | 0.9 | 7.8 | 0.00 | 0.00 | 0.00 | 43 | 1001.3 |
| 20260508193125 | 58 | 151 | 1.7 | 6.1 | 0.00 | 0.00 | 0.00 | 44 | 1001.2 |
| 20260508191553 | 57 | 138 | 0.9 | 6.1 | 0.00 | 0.00 | 0.00 | 45 | 1001.4 |
| 20260508190058 | 56 | 0 | 0.9 | 5.2 | 0.00 | 0.00 | 0.00 | 51 | 1001.3 |
| 20260508184629 | 56 | 147 | 0.9 | 4.3 | 0.00 | 0.00 | 0.00 | 52 | 1001.3 |
| 20260508183049 | 56 | 150 | 0.9 | 4.3 | 0.00 | 0.00 | 0.00 | 53 | 1001.5 |
| 20260508181559 | 56 | 170 | 0.9 | 5.2 | 0.00 | 0.00 | 0.00 | 53 | 1001.4 |
| 20260508180100 | 56 | 190 | 1.7 | 5.2 | 0.00 | 0.00 | 0.00 | 55 | 1001.5 |
| 20260508174606 | 56 | 141 | 1.7 | 5.2 | 0.00 | 0.00 | 0.00 | 52 | 1001.5 |
| 20260508173105 | 57 | 181 | 0.9 | 4.3 | 0.00 | 0.00 | 0.00 | 54 | 1001.3 |
| 20260508171623 | 55 | 40 | 0.9 | 5.2 | 0.00 | 0.00 | 0.00 | 58 | 1001.5 |
| 20260508170059 | 55 | 143 | 2.6 | 5.2 | 0.00 | 0.00 | 0.00 | 57 | 1001.7 |
| 20260508164559 | 55 | 191 | 1.7 | 4.3 | 0.00 | 0.00 | 0.00 | 56 | 1001.9 |
| 20260508163056 | 54 | 216 | 1.7 | 11.3 | 0.00 | 0.00 | 0.00 | 54 | 1002.0 |
| 20260508161601 | 52 | 0 | 0.0 | 0.0 | 0.00 | 0.00 | 0.00 | 57 | 1002.1 |